EW9135 Weather Reports


Display with metric or nautical units.
time (UTC)temp
F
wind
direction
speed
MPH
gust
MPH
rain 1hr
in
rain 24hr
in
rain mn
in
humidity
%
barometer
mb
20260502071119 60 257 0.0 0.0 0.00 0.00 0.00 32 1019.1
20260502071113 60 240 0.0 0.0 0.00 0.00 0.00 31 1019.1
20260502070106 61 250 0.0 0.0 0.00 0.00 0.00 30 1019.1
20260502070057 61 234 0.0 0.0 0.00 0.00 0.00 28 1019.1
20260502065703 61 226 0.0 0.0 0.00 0.00 0.00 29 1019.1
20260502064551 61 280 0.0 0.0 0.00 0.00 0.00 26 1019.1
20260502064047 61 251 0.0 0.0 0.00 0.00 0.00 26 1019.1
20260502063540 61 278 0.0 0.0 0.00 0.00 0.00 25 1019.1
20260502063035 62 271 0.0 0.0 0.00 0.00 0.00 25 1019.1
20260502062533 62 265 0.0 0.0 0.00 0.00 0.00 24 1019.1
20260502062025 62 252 0.0 0.0 0.00 0.00 0.00 25 1019.1
20260502061519 62 253 0.0 0.0 0.00 0.00 0.00 25 1019.4
20260502061015 62 262 0.0 0.0 0.00 0.00 0.00 24 1019.1
20260502060508 62 227 0.0 0.0 0.00 0.00 0.00 24 1019.1
20260502060003 63 277 0.0 0.0 0.00 0.00 0.00 24 1019.4
20260502055459 63 239 0.0 0.0 0.00 0.00 0.00 24 1019.4
20260502054952 63 322 0.0 0.0 0.00 0.00 0.00 23 1019.4
20260502054446 63 272 0.0 0.0 0.00 0.00 0.00 22 1019.1
20260502053943 63 254 0.0 0.0 0.00 0.00 0.00 22 1019.1
20260502053436 63 274 0.0 0.0 0.00 0.00 0.00 22 1019.4
20260502052930 63 253 0.0 0.0 0.00 0.00 0.00 21 1019.1
20260502052426 63 271 0.0 0.0 0.00 0.00 0.00 22 1019.1
20260502051920 63 228 0.0 0.0 0.00 0.00 0.00 21 1019.1
20260502051915 63 3 0.0 0.0 0.00 0.00 0.00 21 1019.4
20260502050910 63 273 0.0 0.0 0.00 0.00 0.00 21 1019.4
20260502050403 63 271 0.0 0.0 0.00 0.00 0.00 22 1019.1
20260502045858 64 256 0.0 0.0 0.00 0.00 0.00 22 1019.4
20260502045850 64 333 0.0 0.0 0.00 0.00 0.00 22 1019.1
20260502045455 64 240 0.0 0.0 0.00 0.00 0.00 22 1019.1
20260502044341 64 277 0.0 0.0 0.00 0.00 0.00 21 1019.1
20260502043837 65 249 0.0 0.0 0.00 0.00 0.00 21 1019.1
20260502043332 65 357 0.0 0.0 0.00 0.00 0.00 20 1019.1
20260502043327 65 285 0.0 0.0 0.00 0.00 0.00 22 1019.1
20260502042320 65 290 0.0 0.0 0.00 0.00 0.00 22 1019.1
20260502041814 66 228 0.0 0.0 0.00 0.00 0.00 22 1019.1
20260502041309 66 282 0.0 0.0 0.00 0.00 0.00 22 1019.1
20260502040806 67 273 0.0 0.0 0.00 0.00 0.00 22 1018.7
20260502040759 67 321 0.0 0.0 0.00 0.00 0.00 22 1018.7
20260502035754 68 279 0.0 0.0 0.00 0.00 0.00 21 1018.4
20260502035250 68 286 0.0 0.0 0.00 0.00 0.00 23 1018.4
20260502034743 69 274 0.0 0.0 0.00 0.00 0.00 23 1018.4
20260502034238 69 251 0.0 0.0 0.00 0.00 0.00 22 1018.4
20260502033734 69 259 0.0 0.0 0.00 0.00 0.00 22 1018.4
20260502033228 70 323 0.0 0.0 0.00 0.00 0.00 21 1018.0
20260502032722 70 231 0.0 0.0 0.00 0.00 0.00 21 1018.4
20260502032219 70 244 0.0 0.0 0.00 0.00 0.00 21 1018.0
20260502032213 71 143 0.0 0.0 0.00 0.00 0.00 21 1018.0
20260502031207 71 300 0.0 0.0 0.00 0.00 0.00 20 1017.7
20260502030702 72 261 0.0 1.0 0.00 0.00 0.00 20 1018.0
20260502030156 72 288 0.0 1.0 0.00 0.00 0.00 20 1017.7
20260502025651 73 254 0.0 1.0 0.00 0.00 0.00 19 1018.0
20260502025146 73 275 0.0 1.0 0.00 0.00 0.00 18 1018.0
20260502024641 73 315 0.0 0.0 0.00 0.00 0.00 18 1018.0
20260502024635 74 335 0.0 0.0 0.00 0.00 0.00 18 1018.0
20260502023631 74 285 0.0 0.0 0.00 0.00 0.00 18 1017.7
20260502023624 74 12 0.0 1.0 0.00 0.00 0.00 17 1017.7
20260502022621 74 306 0.0 2.0 0.00 0.00 0.00 17 1018.0
20260502022615 75 285 0.0 2.0 0.00 0.00 0.00 16 1018.0
20260502021608 75 253 0.0 1.0 0.00 0.00 0.00 16 1017.7
20260502021102 76 358 0.0 1.0 0.00 0.00 0.00 15 1017.7
20260502020558 76 277 0.0 1.0 0.00 0.00 0.00 15 1017.7
20260502020052 76 231 0.0 1.0 0.00 0.00 0.00 13 1018.0
20260502015547 77 207 0.0 1.0 0.00 0.00 0.00 13 1017.7
20260502015043 77 264 0.0 1.0 0.00 0.00 0.00 12 1017.7
20260502014535 78 343 0.0 1.0 0.00 0.00 0.00 12 1017.7
20260502014032 78 248 0.0 1.0 0.00 0.00 0.00 10 1017.4
20260502014027 78 236 0.0 0.0 0.00 0.00 0.00 10 1017.7
20260502013020 79 315 0.0 0.0 0.00 0.00 0.00 10 1017.7
20260502012514 79 80 0.0 1.0 0.00 0.00 0.00 10 1017.7
20260502012010 79 234 0.0 1.0 0.00 0.00 0.00 10 1017.4
20260502011504 80 300 0.0 1.0 0.00 0.00 0.00 10 1017.7
20260502010959 80 217 0.0 1.0 0.00 0.00 0.00 10 1017.7
20260502010454 80 35 0.0 1.0 0.00 0.00 0.00 10 1017.7
20260502005948 81 193 0.0 1.0 0.00 0.00 0.00 10 1017.7
20260502005443 81 284 0.0 0.0 0.00 0.00 0.00 10 1017.7
20260502004939 81 297 0.0 1.0 0.00 0.00 0.00 10 1018.0
20260502004432 81 137 0.0 1.0 0.00 0.00 0.00 10 1017.7
20260502003927 82 123 0.0 1.0 0.00 0.00 0.00 10 1017.7
20260502003422 82 289 0.0 1.0 0.00 0.00 0.00 10 1018.0
20260502003414 82 268 0.0 2.0 0.00 0.00 0.00 10 1017.7
20260502003018 82 11 0.0 2.0 0.00 0.00 0.00 10 1017.7
20260502001907 82 269 0.0 1.0 0.00 0.00 0.00 10 1017.7
20260502001401 83 191 0.0 1.0 0.00 0.00 0.00 10 1017.7
20260502000856 83 288 0.0 1.0 0.00 0.00 0.00 10 1018.0
20260502000352 83 22 0.0 2.0 0.00 0.00 0.00 12 1018.0
20260501235845 83 352 0.0 2.0 0.00 0.00 0.00 12 1018.0
20260501235340 83 223 0.0 2.0 0.00 0.00 0.00 12 1018.0
20260501234835 83 224 0.0 2.0 0.00 0.00 0.00 12 1018.0
20260501234329 83 353 0.0 1.0 0.00 0.00 0.00 12 1018.0
20260501233824 83 277 0.0 1.0 0.00 0.00 0.00 12 1018.0
20260501233320 83 237 0.0 1.0 0.00 0.00 0.00 12 1018.0
20260501232813 83 255 0.0 1.0 0.00 0.00 0.00 12 1018.0
20260501232308 83 302 0.0 1.0 0.00 0.00 0.00 12 1018.0
20260501231803 83 351 0.0 0.0 0.00 0.00 0.00 12 1018.0
20260501231754 83 256 0.0 0.0 0.00 0.00 0.00 12 1018.0
20260501231359 83 258 0.0 0.0 0.00 0.00 0.00 12 1018.0
20260501230248 83 48 0.0 1.0 0.00 0.00 0.00 12 1018.0
20260501225743 82 226 0.0 1.0 0.00 0.00 0.00 12 1018.4
20260501225235 82 266 0.0 1.0 0.00 0.00 0.00 11 1018.4
20260501224731 81 287 0.0 2.0 0.00 0.00 0.00 12 1018.7
20260501224225 81 275 0.0 2.0 0.00 0.00 0.00 12 1018.7
20260501223719 80 316 0.0 2.0 0.00 0.00 0.00 10 1018.7
20260501223215 80 300 0.0 2.0 0.00 0.00 0.00 10 1018.7
20260501222709 80 43 0.0 1.0 0.00 0.00 0.00 10 1019.1
20260501222204 80 256 0.0 2.0 0.00 0.00 0.00 10 1018.7
20260501221700 80 42 0.0 3.0 0.00 0.00 0.00 10 1019.1
20260501221153 80 94 1.0 3.0 0.00 0.00 0.00 10 1019.1
20260501220648 80 48 0.0 2.0 0.00 0.00 0.00 10 1019.1
20260501220143 80 14 0.0 2.0 0.00 0.00 0.00 10 1019.1
20260501215637 80 23 0.0 2.0 0.00 0.00 0.00 10 1019.7
20260501215631 80 98 1.0 2.0 0.00 0.00 0.00 10 1019.4
20260501215235 80 31 0.0 2.0 0.00 0.00 0.00 10 1019.4
20260501214121 80 88 0.0 2.0 0.00 0.00 0.00 10 1019.4
20260501214113 81 78 0.0 2.0 0.00 0.00 0.00 10 1019.4
20260501213718 81 157 0.0 2.0 0.00 0.00 0.00 10 1019.4
20260501212606 80 46 0.0 2.0 0.00 0.00 0.00 10 1019.4
20260501212100 80 71 0.0 2.0 0.00 0.00 0.00 11 1019.7
20260501211556 80 120 0.0 2.0 0.00 0.00 0.00 10 1019.7
20260501211050 79 286 0.0 1.0 0.00 0.00 0.00 10 1019.7
20260501210547 79 34 0.0 1.0 0.00 0.00 0.00 10 1019.7
20260501210542 78 313 0.0 0.0 0.00 0.00 0.00 11 1019.7
20260501205535 78 107 0.0 1.0 0.00 0.00 0.00 11 1020.1
20260501205030 78 107 0.0 2.0 0.00 0.00 0.00 12 1020.1
20260501205025 78 85 0.0 2.0 0.00 0.00 0.00 11 1020.1